Weather Roundup
Issued by NWS

Home | Current Version | Previous Version | Text Only | Print | Product List | Glossary On
Versions: 1 2 3 4 5 6 7 8 9 10 11 12 13 14 15 16 17 18 19 20 21 22 23 24 25 26 27 28 29 30 31 32 33 34 35 36 37 38 39 40 41 42 43 44 45 46 47 48 49 50
757
NZUS93 KARX 282059
HRRWXR

CURRENT HOURLY OBSERVATIONS ACROSS
MUCH OF THE UPPER MISSISSIPPI VALLEY
NATIONAL WEATHER SERVICE LA CROSSE WI
400 PM CDT TUE MAR 28 2017


...SOUTHEAST MINNESOTA...


CITY           SKY/WX    TMP DP  RH WIND       PRES   REMARKS
ROCHESTER      SUNNY     57  39  51 E8        30.13F
ROCHESTER/MAYO FAIR      58  35  42 NE6       30.13F
WINONA         SUNNY     57  37  47 CALM      30.14F
AUSTIN         SUNNY     55  39  54 E8        30.12S
ALBERT LEA     SUNNY     57  37  47 E12       30.12S
DODGE CENTER   SUNNY     57  37  47 NE3       30.13S
PRESTON        SUNNY     56  36  46 NE5       30.13F
OWATONNA       SUNNY     59  34  38 NE7       30.13S
FARIBAULT      MOSUNNY   63  39  42 E8        30.13F
$$

...ELSEWHERE IN MINNESOTA...


CITY           SKY/WX    TMP DP  RH WIND       PRES   REMARKS
MINNEAPOLIS    PTSUNNY   64  28  25 MISG      30.12F
INTNL FALLS    SUNNY     53  29  39 N7        30.19R
DULUTH         MOSUNNY   58  29  33 CALM      30.14S
RED WING       SUNNY     61  34  36 S5        30.12F
REDWOOD FALLS  MOSUNNY   62  33  33 E12       30.10F
MANKATO        SUNNY     61  35  37 NE10      30.11F
WORTHINGTON    MOSUNNY   58  37  45 E16       30.10F
FAIRMONT       SUNNY     58  38  47 E13       30.10F
$$

...SOUTHWEST WISCONSIN...


CITY           SKY/WX    TMP DP  RH WIND       PRES   REMARKS
LA CROSSE      SUNNY     61  39  44 NW7       30.13F
PRAIRIE DU CHI SUNNY     54  36  51 E8        30.14F
BOSCOBEL       SUNNY     58  36  43 E8        30.14F
LONE ROCK      NOT AVBL
PLATTEVILLE    SUNNY     50  42  75 SE5       30.15F
FORT MC COY    SUNNY     59  33  37 NE7       30.15S
MAUSTON-NEW LI CLEAR     57  37  47 NE7       30.13F
VIROQUA        FAIR      58  36  43 CALM      30.13F
WIS DELLS      SUNNY     57  34  43 E6        30.13F
$$

...ELSEWHERE IN WISCONSIN...


CITY           SKY/WX    TMP DP  RH WIND       PRES   REMARKS
MILWAUKEE      CLOUDY    39  33  79 NE10      30.18R WCI  32
MADISON        MOSUNNY   56  39  53 NE14      30.13S
GREEN BAY      SUNNY     49  37  63 NE9       30.17F
EAU CLAIRE     NOT AVBL
BLACK RVR FLS  FAIR      62  29  28 NE5       30.13F
MEDFORD        SUNNY     53  32  44 E5        30.15R
WAUSAU         SUNNY     57  27  31 SW5       30.13S
WIS RAPIDS     SUNNY     60  33  36 E8        30.15F
MARSHFIELD     SUNNY     55  36  48 E7        30.14S
RICE LAKE      SUNNY     59  27  29 CALM      30.16S
$$

...NORTHEAST IOWA...


CITY           SKY/WX    TMP DP  RH WIND       PRES   REMARKS
WATERLOO       MOSUNNY   58  38  47 E8        30.10F
DUBUQUE        PTSUNNY   49  39  68 NE10      30.14F
DECORAH        SUNNY     55  37  50 VRB6      30.12S
MASON CITY     MOSUNNY   57  37  47 NE10      30.11F
CHARLES CITY   MOSUNNY   57  37  47 E8G14     30.11F
OELWEIN        MOSUNNY   55  41  58 E12       30.11F
$$

...ELSEWHERE IN IOWA...


CITY           SKY/WX    TMP DP  RH WIND       PRES   REMARKS
DES MOINES     CLOUDY    52  42  69 NE8       30.09F
IOWA CITY      CLOUDY    53  44  71 NE6       30.13F
FORT DODGE     PTSUNNY   54  43  66 E8        30.11S
MARSHALLTOWN   CLOUDY    51  43  74 E9        30.10F
CEDAR RAPIDS   CLOUDY    51  44  77 CALM      30.10F
$$

...NORTHERN ILLINOIS...


CITY           SKY/WX    TMP DP  RH WIND       PRES   REMARKS
CHICAGO-OHARE  PTSUNNY   48  37  65 NE14      30.14R
CHICAGO-MIDWAY CLOUDY    45  37  73 N13G23    30.15R
MOLINE         CLOUDY    53  42  66 NE9       30.12S
ROCKFORD       CLOUDY    53  39  59 VRB3      30.15F
PEORIA         CLOUDY    53  44  71 E7        30.11F
$$

NOTE: "FAIR" INDICATES FEW OR NO CLOUDS BELOW 12,000 FEET WITH NO
SIGNIFICANT WEATHER AND/OR OBSTRUCTIONS TO VISIBILITY. WIND
SPEEDS ARE IN MILES-PER-HOUR.




USA.gov is the U.S. government's official web portal to all federal, state and local government web resources and services.